Temperature
18 18 18 18 18 18 18 18 18 18 18 18 18 18 18 18 18 18 18 18 18 18 18 17 17 17 17 17 17 17 17 17 17 17 17 17 16 16 16 16 16 16 16
18 18 18 18 18 17 17 18 18 18 18 18 18 18 18 18 18 18 18 18 18 18 18 18 17 17 17 17 17 17 17 17 17 17 17 16 16 16 16 16 16 16 16
18 18 18 18 17 17 17 17 17 17 17 17 17 17 18 18 18 18 18 18 18 18 18 18 18 17 17 17 17 17 17 17 17 17 16 16 16 16 16 16 16 16 16
17 18 18 17 17 17 17 17 17 17 17 17 17 17 17 17 17 17 17 18 18 18 18 18 18 17 17 17 17 17 17 17 17 17 16 16 16 16 16 16 16 16 16
17 17 17 17 17 17 17 17 17 17 17 17 17 17 17 17 17 17 17 17 17 18 18 18 17 17 17 17 17 17 17 17 16 16 16 16 16 16 16 16 16 16 16
17 17 17 17 17 17 17 17 17 17 17 17 17 17 17 17 17 17 17 17 17 17 17 17 17 17 17 17 17 17 17 16 16 16 16 16 16 16 16 16 16 16 16
17 17 17 17 17 17 17 17 17 17 17 17 17 17 17 17 17 17 17 17 17 17 17 17 17 17 17 17 17 17 17 17 16 16 16 16 16 16 16 16 16 16 15
17 17 17 17 17 17 17 17 17 17 17 17 16 16 16 17 17 17 17 17 17 17 17 17 17 17 17 17 17 17 16 17 16 16 16 16 16 16 16 16 15 15 15
17 17 17 17 17 17 17 17 17 17 17 17 16 16 16 17 17 17 17 17 17 17 17 17 17 17 17 17 17 17 17 17 16 16 16 16 16 16 16 16 15 15 15
17 17 17 17 17 17 17 17 17 17 17 17 16 16 16 16 16 16 16 16 16 16 16 16 16 16 16 16 16 16 16 16 16 16 16 16 16 16 16 16 15 15 15
17 17 17 17 17 17 17 16 17 16 16 16 16 16 16 16 16 16 16 16 16 16 16 16 16 16 16 16 16 16 16 16 16 16 16 16 16 16 16 16 15 15 15
17 17 17 17 17 16 16 16 16 16 16 16 16 16 16 16 16 16 16 16 16 16 16 16 16 16 16 16 16 16 16 16 16 16 16 16 15 15 15 15 15 15 15
17 17 17 17 16 16 16 16 16 16 16 16 16 16 16 16 16 16 16 16 16 16 16 16 16 16 16 16 15 15 16 16 15 16 16 16 15 15 15 15 15 15 15
17 17 16 16 16 16 16 16 16 16 16 16 16 16 16 16 16 16 16 16 15 15 15 15 15 15 15 15 15 15 15 15 15 15 15 15 15 15 15 15 15 15 15
16 16 16 16 16 16 16 16 16 16 16 16 16 15 15 15 15 15 15 15 15 15 15 15 15 15 15 15 15 15 15 15 15 15 15 15 15 15 15 15 15 15 15
16 16 16 16 16 16 16 16 16 16 15 15 15 15 15 15 15 15 15 15 15 15 14 15 15 15 15 15 15 15 15 15 15 15 15 15 15 15 15 15 15 15 15
16 16 16 15 15 15 15 15 15 15 15 15 15 15 15 15 15 15 15 15 15 15 14 14 15 15 15 15 14 14 14 14 14 14 14 14 14 14 14 14 14 14 14
16 16 16 15 15 15 15 15 15 15 15 15 15 15 15 15 15 15 14 14 14 14 14 14 14 14 14 14 14 14 14 14 14 14 14 14 14 14 14 14 14 14 14
16 15 15 15 15 15 15 15 15 15 14 14 14 15 14 14 14 14 14 14 14 14 14 14 14 14 14 14 14 14 14 14 14 14 14 14 14 14 14 14 14 14 14
16 15 15 15 15 15 15 15 15 14 14 14 14 14 14 14 14 14 14 14 14 14 14 14 14 14 14 14 14 14 14 14 14 14 14 13 14 14 14 14 14 14 14
15 15 15 15 14 14 14 14 14 14 14 14 14 14 14 14 14 14 14 14 14 14 14 14 14 14 14 13 13 13 13 13 13 13 13 13 13 13 13 13 13 13 13
15 15 15 14 14 14 14 14 14 14 14 14 14 14 14 14 14 14 14 14 14 13 13 13 13 13 13 13 13 13 13 13 13 13 13 13 13 13 13 13 13 13 13
15 14 14 14 14 14 14 14 14 13 14 14 14 14 14 14 14 14 14 14 13 13 13 13 13 13 13 13 13 13 13 13 13 13 13 13 13 13 13 13 13 13 13
14 14 14 14 14 14 14 14 14 13 13 13 13 14 14 13 13 13 13 13 13 13 13 13 13 13 13 13 13 13 13 12 12 12 12 12 12 12 12 12 12 12 12
14 14 14 14 14 13 13 13 13 13 13 13 13 13 13 13 13 13 13 13 13 13 13 13 13 13 12 12 12 12 12 12 12 12 12 12 12 12 12 12 12 12 12
14 13 13 13 13 13 13 13 13 13 13 13 13 13 13 13 13 13 13 13 13 13 12 12 12 12 12 12 12 12 12 12 12 12 12 11 11 11 11 12 12 12 12
Wind_Speed
1 1 1 2 2 2 2 2 3 3 3 3 3 2 1 0 1 1 2 4 6 7 8 9 10 9 10 10 10 10 9 10 10 9 9 9 9 9 8 9 9 10 10
1 0 1 1 1 1 1 2 2 2 2 2 2 2 2 1 1 1 2 3 5 7 8 9 10 10 10 10 11 11 10 10 10 10 10 10 9 9 8 8 8 9 9
2 1 0 1 1 1 2 2 3 2 2 2 2 2 1 1 1 1 2 2 3 5 8 9 9 10 11 11 11 11 10 10 11 11 11 11 10 9 9 8 8 8 8
3 2 1 1 1 1 1 1 1 2 2 2 1 1 1 1 1 2 2 2 2 3 5 6 8 9 10 11 12 11 11 10 11 11 11 11 10 10 10 10 9 9 9
3 2 1 1 1 1 1 1 1 1 1 1 1 1 1 1 1 1 1 1 2 2 3 4 6 7 9 11 12 11 11 11 11 11 11 11 10 10 10 11 10 10 10
2 3 2 1 1 1 1 1 1 1 1 0 1 2 2 2 1 1 1 1 1 2 2 3 3 4 6 9 9 10 10 10 11 11 11 11 11 11 11 11 10 10 10
2 2 2 1 2 2 2 2 2 1 1 1 1 2 3 2 1 1 1 1 1 1 1 2 2 2 3 4 5 6 7 8 9 10 11 11 11 11 11 11 10 10 10
2 2 3 2 2 2 1 1 2 1 1 1 1 1 2 3 2 2 2 1 1 1 1 1 0 0 1 1 2 4 5 5 7 9 9 10 11 11 11 11 11 11 11
2 2 3 2 2 2 2 2 2 2 2 1 1 2 1 1 2 2 2 2 2 2 1 1 1 0 1 1 1 2 3 4 5 6 8 8 9 10 10 11 11 11 11
1 2 2 3 2 2 2 2 2 2 3 1 0 0 1 2 1 1 1 1 2 2 2 1 1 1 1 1 0 0 1 2 3 4 4 5 6 8 10 11 11 11 11
1 1 2 2 2 2 2 2 1 2 2 2 1 1 0 0 1 2 2 2 1 1 1 1 1 0 1 1 0 1 1 1 2 2 3 4 5 6 7 8 9 10 10
0 1 1 2 2 2 2 2 2 3 2 2 2 1 1 1 1 2 2 1 2 1 1 1 0 1 1 0 0 1 1 1 1 2 2 4 5 5 5 5 6 7 8
1 2 1 1 1 2 2 2 2 2 3 3 3 2 2 2 1 2 2 1 1 1 1 1 1 1 1 1 1 1 1 1 1 1 1 2 3 4 5 5 6 6 7
2 2 2 2 2 2 2 2 2 2 2 2 3 2 2 2 2 2 2 2 1 1 1 2 1 1 1 1 2 2 1 2 2 1 2 2 3 4 5 5 6 6 7
1 1 2 1 2 2 2 2 2 2 2 2 2 2 2 2 2 2 2 3 3 2 2 2 1 1 1 1 2 1 1 1 2 2 2 3 4 4 5 6 6 7 6
1 1 1 2 2 2 2 2 2 2 2 2 2 2 2 2 1 1 2 2 2 3 2 2 2 2 1 1 1 1 2 2 2 3 3 2 3 3 4 4 6 7 7
2 2 2 2 2 2 2 2 2 2 3 3 2 3 3 2 2 1 1 1 2 2 2 2 1 2 1 1 1 1 1 1 2 2 3 2 2 2 2 3 4 6 6
2 2 2 2 2 2 2 3 3 3 3 3 3 3 3 2 2 2 2 2 2 3 3 3 2 1 2 2 1 1 1 1 2 2 2 2 2 2 2 3 4 4 5
2 2 2 2 3 2 2 3 3 3 4 4 4 4 4 3 3 3 3 3 3 3 2 3 2 2 2 1 1 1 1 1 2 3 3 3 3 3 3 4 4 4 4
3 2 2 3 3 3 2 2 3 3 3 4 4 4 5 5 6 5 4 4 4 3 3 3 2 2 2 1 1 2 1 1 2 2 2 2 2 3 4 4 4 4 4
3 3 3 3 2 2 3 3 3 3 3 4 4 5 5 6 7 6 5 5 5 4 3 3 3 2 2 1 2 2 2 2 2 1 1 2 2 2 2 4 5 5 5
3 3 3 3 3 4 4 4 3 3 4 4 4 5 5 6 6 7 8 7 8 6 6 5 4 4 4 3 3 2 2 1 2 1 1 2 1 2 3 3 4 5 6
3 3 4 4 4 5 5 5 5 3 4 5 5 5 4 5 5 5 6 6 8 9 9 7 6 6 5 5 4 4 3 2 3 2 1 2 2 3 3 4 4 5 6
3 4 5 5 4 5 5 5 5 4 4 5 6 6 6 5 5 6 5 5 6 7 8 7 7 7 6 5 6 5 4 2 1 2 2 2 2 2 3 3 4 5 6
4 4 4 4 4 5 5 6 4 3 4 6 6 5 6 6 7 7 5 5 5 5 5 7 7 6 6 6 5 3 3 3 2 2 2 2 2 2 2 3 3 5 6
4 4 4 4 5 5 7 7 5 3 4 5 5 5 6 6 6 6 6 6 6 5 4 3 4 4 5 5 7 6 6 5 2 2 2 2 2 1 1 2 2 2 3
Wind_Direction
109 48 3 353 351 353 1 12 15 25 33 30 26 49 36 27 226 226 216 212 211 209 205 201 202 203 202 202 201 199 198 200 202 201 198 198 201 201 201 206 209 208 207
162 139 345 336 337 346 3 24 28 34 29 27 28 37 27 6 322 264 238 231 221 220 212 208 208 209 209 206 203 202 204 203 204 204 205 205 204 204 202 202 201 204 206
183 171 167 325 322 360 25 35 39 44 45 42 29 12 16 5 329 305 280 258 240 227 219 214 214 217 215 211 208 208 211 208 207 208 209 208 206 208 207 207 206 204 203
197 182 179 259 330 43 61 69 51 50 40 31 7 339 344 346 334 315 291 266 253 238 226 220 224 224 220 216 214 214 213 209 207 208 211 211 211 213 210 210 210 208 206
200 180 191 213 152 97 89 109 77 81 49 16 355 349 348 329 316 318 315 286 269 256 242 234 233 233 229 223 220 220 217 213 209 209 212 212 213 213 211 211 210 210 209
193 174 181 195 159 134 127 119 120 78 102 359 14 5 351 336 338 333 310 317 299 282 264 255 247 245 239 232 224 226 224 220 213 212 213 216 217 216 215 212 210 211 211
186 165 175 170 160 158 166 154 142 120 79 76 58 8 358 4 11 360 356 355 329 299 285 263 253 248 244 233 223 224 226 226 220 216 219 219 221 220 218 214 212 213 213
201 180 171 174 174 159 144 143 138 135 126 104 108 61 358 352 1 9 18 28 23 50 46 30 324 261 230 222 231 230 229 240 230 225 223 224 225 222 218 217 215 214 214
194 177 168 165 170 160 166 172 162 161 179 184 138 154 157 244 311 344 14 24 22 33 15 8 41 359 246 231 256 252 247 252 239 235 230 225 219 218 218 219 216 214 215
176 174 170 163 162 154 166 193 170 168 166 194 239 233 198 183 199 313 340 4 9 4 341 332 337 3 42 96 93 301 293 266 236 239 235 225 222 221 219 220 219 217 215
170 175 166 151 155 158 169 174 165 165 171 181 190 194 188 200 212 212 273 313 338 319 317 305 291 146 88 84 72 23 350 318 265 236 235 226 222 224 223 220 217 216 217
273 219 180 173 181 180 187 190 186 177 183 182 185 175 175 182 201 203 229 264 284 294 306 305 273 251 216 177 269 324 288 323 324 269 251 237 225 218 218 218 213 211 212
238 250 220 196 198 201 197 184 179 191 196 192 200 205 205 215 197 188 192 217 251 290 304 307 276 274 256 226 265 293 292 309 314 279 251 250 234 223 221 219 215 215 217
230 231 207 194 196 203 204 178 179 199 196 204 215 205 210 227 210 198 190 179 227 284 296 283 282 258 266 258 271 276 287 295 300 298 272 268 255 235 220 218 216 213 212
220 200 201 209 214 208 203 186 193 203 192 207 219 218 223 232 215 218 205 192 187 225 257 269 258 272 279 265 266 268 275 292 293 291 289 271 257 242 228 223 219 213 205
208 188 219 220 222 222 205 191 195 195 194 219 213 209 231 238 226 213 201 206 202 202 241 252 257 285 270 261 254 257 269 296 291 282 283 289 274 250 231 223 220 212 208
205 204 214 227 234 239 214 194 213 202 207 228 226 215 228 224 213 214 188 188 197 187 224 272 266 280 249 255 292 280 283 283 300 285 279 279 273 255 236 219 213 213 212
226 222 212 222 236 234 219 207 219 215 214 228 234 225 232 220 218 216 191 202 212 207 205 230 257 269 260 241 249 248 263 273 279 280 276 271 260 247 236 226 220 215 214
218 222 212 222 242 247 236 224 212 219 223 229 229 224 227 210 226 224 206 208 216 211 202 206 237 254 271 256 239 256 262 277 284 284 269 269 261 249 237 231 225 213 210
213 224 229 234 239 243 242 234 222 227 234 240 237 231 228 217 219 219 215 212 204 196 197 199 218 244 258 254 200 228 277 291 289 296 295 293 272 255 242 234 230 219 213
227 222 230 251 258 251 247 237 240 246 241 249 252 244 237 224 220 215 214 205 195 192 194 199 213 229 239 224 227 229 249 278 280 258 278 293 292 282 268 247 234 224 216
237 222 227 238 249 257 262 247 238 254 254 247 253 257 249 235 230 224 219 207 196 195 200 203 213 221 234 230 225 219 225 248 265 251 247 281 273 269 275 255 241 229 222
241 239 237 234 243 252 254 255 246 242 252 252 246 247 253 247 230 226 225 223 221 218 207 204 211 224 225 216 203 214 218 228 246 242 231 263 267 268 270 263 248 236 231
240 242 243 240 244 255 253 256 252 247 256 260 250 242 242 248 236 220 222 228 231 230 222 217 218 226 224 214 204 208 213 222 264 245 210 233 252 260 274 270 258 240 235
242 242 246 242 248 262 254 248 237 248 263 269 262 249 242 244 238 218 213 225 237 243 230 223 223 226 223 215 198 185 191 194 244 253 205 214 240 261 273 268 263 250 241
241 247 249 240 240 256 256 246 232 233 257 270 272 262 246 240 238 217 212 214 225 233 224 222 226 232 229 217 201 199 197 199 219 245 209 194 214 216 254 257 265 273 259
Height
1530 1530 1530 1530 1530 1530 1530 1530 1530 1530 1531 1531 1531 1532 1533 1534 1534 1535 1535 1536 1537 1538 1539 1540 1541 1543 1544 1545 1546 1547 1548 1549 1550 1551 1552 1553 1554 1555 1556 1557 1558 1559 1560
1530 1531 1531 1531 1531 1531 1531 1531 1531 1531 1531 1531 1532 1532 1533 1533 1534 1535 1535 1536 1537 1537 1538 1539 1540 1541 1542 1543 1544 1545 1546 1547 1548 1549 1550 1551 1552 1553 1554 1555 1556 1557 1558
1530 1531 1531 1531 1531 1531 1531 1531 1531 1531 1531 1531 1532 1532 1533 1533 1533 1534 1535 1535 1536 1536 1537 1538 1539 1540 1541 1542 1542 1543 1545 1545 1546 1547 1548 1549 1550 1551 1552 1553 1554 1555 1556
1530 1530 1530 1531 1531 1531 1531 1531 1531 1531 1531 1531 1531 1532 1532 1532 1533 1533 1534 1534 1535 1535 1536 1537 1538 1539 1539 1540 1541 1542 1542 1543 1544 1545 1546 1547 1548 1549 1550 1551 1552 1553 1554
1529 1530 1530 1530 1530 1530 1531 1531 1530 1531 1531 1531 1531 1531 1532 1532 1532 1532 1532 1533 1534 1534 1535 1535 1536 1537 1538 1538 1539 1540 1540 1541 1542 1543 1543 1544 1545 1546 1547 1548 1549 1550 1552
1528 1529 1529 1530 1530 1530 1530 1530 1530 1530 1531 1531 1531 1531 1531 1531 1531 1531 1531 1532 1532 1533 1533 1534 1534 1535 1536 1536 1537 1537 1538 1539 1540 1540 1541 1542 1543 1543 1544 1545 1547 1548 1549
1527 1528 1528 1529 1529 1529 1530 1530 1530 1530 1530 1531 1531 1530 1531 1531 1530 1530 1530 1530 1531 1531 1532 1532 1533 1533 1534 1534 1535 1535 1536 1537 1537 1538 1538 1539 1540 1541 1542 1543 1544 1545 1546
1526 1527 1527 1528 1528 1528 1529 1529 1529 1529 1529 1530 1530 1530 1530 1531 1530 1530 1530 1530 1530 1530 1530 1531 1531 1532 1532 1532 1533 1534 1534 1535 1535 1536 1536 1537 1537 1538 1539 1540 1541 1542 1543
1525 1525 1526 1527 1527 1527 1528 1528 1528 1528 1529 1529 1529 1530 1530 1529 1529 1529 1529 1529 1529 1529 1529 1530 1530 1530 1530 1531 1531 1532 1532 1532 1533 1533 1534 1534 1535 1535 1536 1537 1538 1539 1540
1524 1524 1525 1525 1526 1526 1526 1527 1527 1527 1528 1528 1529 1529 1529 1529 1529 1528 1528 1528 1528 1528 1528 1528 1528 1528 1528 1529 1529 1529 1530 1530 1530 1531 1531 1532 1533 1533 1534 1535 1536 1536 1537
1522 1523 1524 1524 1524 1525 1525 1525 1526 1526 1527 1527 1527 1527 1527 1527 1528 1527 1526 1527 1527 1527 1527 1527 1527 1527 1527 1527 1527 1527 1528 1528 1528 1528 1529 1530 1530 1531 1532 1532 1533 1534 1534
1521 1522 1522 1522 1523 1523 1523 1524 1524 1525 1525 1525 1525 1526 1526 1526 1526 1525 1525 1524 1525 1525 1525 1525 1525 1526 1526 1526 1526 1526 1526 1526 1526 1526 1527 1527 1528 1529 1529 1530 1530 1531 1532
1519 1520 1520 1520 1521 1521 1522 1522 1522 1523 1523 1523 1523 1523 1524 1524 1524 1524 1523 1523 1523 1523 1523 1523 1524 1524 1524 1524 1524 1524 1524 1524 1524 1524 1525 1525 1526 1526 1527 1528 1528 1529 1529
1517 1517 1518 1518 1519 1519 1519 1520 1520 1520 1520 1521 1521 1521 1521 1521 1521 1521 1521 1521 1521 1521 1521 1521 1522 1522 1522 1522 1523 1523 1522 1522 1522 1522 1522 1523 1523 1524 1524 1525 1526 1526 1527
1514 1515 1515 1516 1516 1516 1517 1517 1517 1517 1518 1518 1518 1518 1518 1519 1519 1519 1519 1519 1520 1518 1518 1519 1519 1520 1520 1520 1520 1520 1520 1520 1520 1520 1520 1520 1520 1521 1521 1522 1523 1524 1525
1512 1512 1512 1513 1513 1514 1514 1514 1514 1514 1515 1515 1515 1515 1515 1516 1516 1516 1516 1516 1517 1517 1516 1516 1517 1518 1518 1518 1518 1518 1518 1518 1518 1518 1518 1518 1518 1518 1519 1519 1520 1521 1522
1510 1509 1509 1510 1510 1511 1511 1511 1511 1511 1512 1512 1512 1512 1513 1513 1513 1513 1513 1514 1514 1514 1514 1514 1514 1515 1515 1516 1516 1516 1516 1516 1516 1516 1516 1516 1516 1516 1516 1517 1518 1518 1519
1507 1507 1507 1507 1507 1508 1508 1508 1508 1508 1509 1509 1509 1509 1509 1510 1510 1511 1511 1511 1511 1511 1511 1511 1511 1512 1512 1513 1513 1513 1513 1513 1513 1513 1513 1513 1513 1514 1514 1514 1515 1515 1515
1505 1505 1504 1504 1505 1505 1505 1505 1505 1505 1505 1506 1506 1506 1506 1507 1507 1507 1507 1508 1508 1508 1508 1508 1508 1509 1509 1510 1510 1510 1510 1510 1510 1511 1511 1511 1511 1511 1511 1511 1512 1512 1513
1502 1502 1502 1502 1502 1502 1502 1502 1502 1502 1503 1503 1503 1503 1503 1503 1503 1504 1504 1504 1505 1505 1505 1506 1506 1506 1506 1507 1507 1507 1507 1507 1507 1508 1508 1508 1508 1508 1508 1508 1509 1509 1510
1499 1499 1499 1500 1500 1500 1500 1500 1500 1499 1500 1500 1499 1499 1499 1499 1499 1500 1500 1501 1501 1501 1502 1502 1502 1503 1503 1504 1504 1504 1504 1504 1504 1504 1504 1504 1504 1504 1505 1505 1506 1506 1507
1496 1497 1497 1497 1497 1497 1497 1497 1497 1496 1496 1496 1496 1496 1496 1495 1495 1496 1497 1497 1498 1498 1498 1499 1499 1499 1500 1501 1501 1502 1502 1501 1500 1502 1501 1501 1501 1501 1502 1502 1502 1503 1504
1494 1493 1494 1494 1494 1494 1494 1494 1494 1494 1493 1493 1493 1492 1492 1492 1492 1492 1493 1493 1494 1494 1495 1495 1495 1496 1497 1498 1498 1498 1498 1498 1498 1498 1498 1497 1498 1498 1499 1499 1500 1500 1501
1491 1491 1491 1491 1490 1490 1490 1490 1491 1490 1490 1490 1489 1488 1488 1488 1488 1488 1489 1489 1489 1490 1491 1491 1492 1493 1494 1494 1495 1495 1495 1495 1495 1495 1496 1495 1495 1495 1496 1496 1497 1497 1497
1488 1488 1488 1487 1487 1487 1487 1487 1487 1486 1486 1486 1485 1485 1484 1484 1484 1484 1484 1484 1485 1486 1487 1488 1488 1489 1490 1491 1491 1491 1491 1492 1491 1492 1492 1492 1492 1492 1493 1493 1494 1494 1495
1484 1484 1484 1484 1483 1483 1483 1483 1483 1483 1482 1482 1481 1480 1480 1479 1479 1480 1480 1480 1480 1481 1483 1483 1484 1485 1486 1487 1487 1488 1488 1488 1488 1488 1489 1489 1489 1490 1490 1490 1491 1491 1492